sat.trackr.live / text

‹ back to catalog

STARLINK-11711 [DTC]

NORAD 64378 · 2025-127J

PAYLOAD ACTIVE UNKNOWN

§ Identity

Operator
Country
US
Launch date
2025-06-13
Launch site
AFETR
Launch vehicle
Mass (kg)
RCS (m²)

Purposes: comms

External: N2YO · Heavens-Above · Gunter

§ Orbital elements

Epoch: 2026-05-24T22:00:41.133600Z

Period
91.67 min
Inclination
43.0000°
Eccentricity
0.0001943
Mean motion
15.70884708 rev/d
Perigee alt
355.1 km
Apogee alt
357.7 km
Semi-major
6,734.5 km
B*
1.3832e-3
RAAN
344.8233°
Arg perigee
264.9841°
Mean anomaly
95.0805°
Rev number
5,560

§ Raw data

STARLINK-11711 [DTC]1 64378U 25127J   26144.91714275  .00181308  00000+0  13832-2 0  99972 64378  43.0000 344.8233 0001943 264.9841  95.0805 15.70884708 55606

JSON: /api/v1/satellites/64378 · /tle

For live sub-satellite position, see the globe view (requires WebGL).

§ Visibility from observer

Set your observer location to see the next 7 days of passes ≥ 10°. The values pass through the URL so the page stays shareable.

No JS? Fill the form by hand. The geolocation button needs JavaScript.